Skip Page Navigation
NASA JPL Caltech
NASA Logo - Jet Propulsion Laboratory + View the NASA Portal
+ Center for Near-Earth Object Studies
JPL Home Earth Solar System Stars & Galaxies Technology
JPL Solar System Dynamics
BODIES ORBITS EPHEMERIDES TOOLS PHYSICAL DATA DISCOVERY FAQ SITE MAP
IMPORTANT: The SSD Announcement email list is now available. Major changes are coming in the near future, including possible hostname and/or URL changes. To be notified of such changes, subscribe to this email list.

Please visit this page for more details.


JPL Small-Body Database Browser
Search: [ help ]  
413042 (2001 PG43)
Classification: Main-belt Asteroid          SPK-ID: 2413042
Ephemeris | Orbit Diagram | Orbital Elements | Mission Design | Physical Parameters | Discovery Circumstances ]

[ show orbit diagram ]
Orbital Elements at Epoch 2458600.5 (2019-Apr-27.0) TDB
Reference: JPL 13 (heliocentric ecliptic J2000)
 Element Value Uncertainty (1-sigma)   Units 
e .2226574041799456 1.4047e-07  
a 2.60499525963202 3.2998e-08 au
q 2.024973777221291 3.5108e-07 au
i 17.75315375774278 8.125e-06 deg
node 126.9281395288044 4.8452e-05 deg
peri 237.062921972864 7.437e-05 deg
M 53.0435952286616 3.9971e-05 deg
tp 2458374.223587580144
(2018-Sep-12.72358758)
0.00017051 TDB
period 1535.708658509864
4.20
2.918e-05
7.989e-08
d
yr
n .2344194636170879 4.4542e-09 deg/d
Q 3.185016742042749 4.0346e-08 au
  Orbit Determination Parameters
   # obs. used (total)      109  
   data-arc span      6305 days (17.26 yr)  
   first obs. used      2001-08-12  
   last obs. used      2018-11-16  
   planetary ephem.      DE431  
   SB-pert. ephem.      SB431-N16  
   condition code      0  
   norm. resid. RMS      .72865  
   source      ORB  
   producer      Otto Matic  
   solution date      2019-Jul-13 14:53:51  

Additional Information
 Earth MOID = 1.07142 au 
 Jupiter MOID = 2.37715 au 
 T_jup = 3.311 
[ show covariance matrix ]

Ephemeris | Orbit Diagram | Orbital Elements | Mission Design | Physical Parameters | Discovery Circumstances ]

Physical Parameter Table
Parameter Symbol Value Units Sigma Reference Notes
absolute magnitude H 16.9   n/a MPO455940  

413042 (2001 PG43)          Discovered 2001-Aug-12 by NEAT at Haleakala
Reference: Last Updated: 2014-11-10
Ephemeris | Orbit Diagram | Orbital Elements | Mission Design | Physical Parameters | Discovery Circumstances ]
ABOUT SSD CREDITS/AWARDS PRIVACY/COPYRIGHT GLOSSARY LINKS
FirstGov
(server date/time)  
NASA Home Page
Site Manager:   Ryan S. Park
Webmaster  Alan B. Chamberlin